Flag for Indonesia Weather past 2 weeks in Medan, North Sumatra, Indonesia

Now
73 °F

Thunderstorms. Passing clouds.


Feels Like: 68 °F
Forecast: 77 / 89 °F
Wind: 5 mph from Southwest

Location: Medan / Polonia

Current Time: Jul 31, 2015 at 4:22:28 AM

Latest Report: Jul 31, 2015 at 3:00 AM


Visibility: 2 mi

Pressure: 29.86 "Hg

Humidity: 100%

Dew point: 73 °F

Location of MedanLocation

Historic Weather in Medan — Graph

°F

Medan temperature yesterday

Maximum temperature yesterday: 90 °F (at 4:30 PM)
Minimum temperature yesterday: 75 °F (at 4:00 AM)
Average temperature yesterday: 81 °F

Past Weeks' High & Low Weather Summary

 TemperatureHumidityPressure
High95 °F (Jul 18, 2:00 PM)100% (Jul 16, 3:00 AM)29.95 "Hg (Jul 16, 3:00 AM)
Low73 °F (Jul 26, 10:30 PM)56% (Jul 29, 3:00 PM)29.68 "Hg (Jul 16, 3:30 PM)
Average82 °F89%29.82 "Hg
* Reported Jul 16 3:00 AM — Jul 31 3:00 AM, Medan, Weather by CustomWeather, © 2015

Note: Actual official high and low records may vary slightly from our data, if they occured in-between our weather recording intervals... More about our weather records

Advertising

Medan weather history for previous 24 hours

 ConditionsComfort  
Time TempWeatherWind HumidityBarometerVisibility
3:00 AM
Fri, Jul 31
73 °FThunderstorms. Passing clouds.5 mph100%29.86 "Hg2 mi
2:30 AM73 °FThunderstorms. Passing clouds.7 mph100%29.86 "Hg3 mi
2:00 AM75 °FThunderstorms. Passing clouds.8 mph94%29.86 "Hg4 mi
1:30 AM75 °FThunderstorms. Passing clouds.3 mph100%29.86 "Hg6 mi
1:00 AM75 °FThundershowers. Passing clouds.No wind94%29.89 "HgN/A
12:30 AM75 °FPassing clouds.5 mph94%29.86 "HgN/A
12:00 AM75 °FPassing clouds.5 mph94%29.89 "HgN/A
11:30 PM
Thu, Jul 30
75 °FPassing clouds.5 mph94%29.89 "HgN/A
11:00 PM77 °FPassing clouds.5 mph89%29.89 "HgN/A
10:30 PM77 °FPassing clouds.8 mph89%29.89 "Hg5 mi
10:00 PM81 °FPassing clouds.8 mph74%29.89 "Hg5 mi
9:30 PM82 °FPassing clouds.14 mph74%29.89 "Hg5 mi
9:00 PM82 °FPassing clouds.5 mph89%29.86 "Hg3 mi
8:00 PM82 °FPassing clouds.3 mph89%29.83 "Hg3 mi
7:30 PM82 °FPassing clouds.5 mph94%29.80 "Hg3 mi
7:00 PM84 °FPassing clouds.No wind89%29.80 "Hg2 mi
6:30 PM84 °FScattered clouds.6 mph89%29.80 "Hg3 mi
6:00 PM86 °FScattered clouds.8 mph84%29.77 "Hg3 mi
5:30 PM86 °FScattered clouds.7 mph84%29.77 "Hg3 mi
5:00 PM88 °FScattered clouds.5 mph75%29.77 "Hg3 mi
4:30 PM90 °FScattered clouds.7 mph71%29.77 "Hg3 mi
4:00 PM88 °FScattered clouds.7 mph70%29.74 "Hg4 mi
3:30 PM88 °FScattered clouds.9 mph70%29.77 "Hg4 mi
3:00 PM88 °FScattered clouds.8 mph70%29.77 "Hg4 mi
2:30 PM88 °FScattered clouds.9 mph70%29.80 "Hg4 mi
2:00 PM88 °FScattered clouds.13 mph70%29.83 "Hg4 mi
1:30 PM88 °FScattered clouds.8 mph70%29.83 "Hg4 mi
1:00 PM86 °FScattered clouds.9 mph75%29.86 "Hg4 mi
12:30 PM88 °FScattered clouds.8 mph70%29.86 "Hg4 mi
12:00 PM88 °FScattered clouds.7 mph70%29.89 "Hg4 mi
11:30 AM88 °FScattered clouds.9 mph66%29.89 "Hg3 mi
11:00 AM82 °FScattered clouds.No wind84%29.89 "Hg3 mi
10:00 AM79 °FPartly sunny.No wind94%29.89 "Hg3 mi
9:30 AM79 °FPartly sunny.No wind94%29.89 "Hg3 mi
9:00 AM77 °FPartly sunny.No wind100%29.89 "Hg3 mi
8:30 AM77 °FScattered clouds.3 mph94%29.86 "Hg3 mi
8:00 AM75 °FScattered clouds.5 mph100%29.86 "Hg3 mi
7:30 AM75 °FScattered clouds.No wind100%29.86 "Hg3 mi
7:00 AM75 °FScattered clouds.5 mph100%29.86 "Hg3 mi
6:30 AM77 °FFog.5 mph100%29.86 "Hg2 mi
6:00 AM77 °FPassing clouds.6 mph100%29.83 "Hg2 mi
4:30 AM77 °FPassing clouds.5 mph100%29.83 "Hg2 mi
4:00 AM75 °FPassing clouds.3 mph100%29.83 "Hg2 mi
Weather by CustomWeather, © 2015

See weather overviewHow to use our weather pages